Wind_Speed
8 8 9 9 10 10 10 10 11 11 10 10 11 13 13 13 14 14 14 14 14 14 14 14 14 15 15 15 16 16 16 16 16 16 16 16 16 16 16 16 16 16 16 16
9 9 10 10 10 10 11 11 12 12 11 11 12 13 14 14 14 14 15 14 15 15 16 16 16 16 16 16 17 18 18 18 18 18 18 18 18 18 17 17 18 18 17 17
9 10 10 11 11 11 12 12 13 13 12 12 13 13 15 14 14 15 16 16 16 16 18 18 18 18 18 18 18 18 19 19 20 20 20 20 20 19 19 19 19 19 19 19
11 11 11 11 12 12 13 13 13 13 13 13 13 15 15 16 16 17 17 18 18 18 19 19 19 19 20 20 20 20 20 21 21 21 21 21 21 20 20 21 20 20 20 20
11 11 11 12 12 12 13 12 12 12 13 14 14 15 15 16 17 18 18 19 19 20 20 20 20 20 21 21 21 21 21 22 22 22 22 22 22 22 21 21 22 22 21 22
12 12 12 12 12 12 13 12 12 13 13 15 15 16 16 17 17 18 20 20 21 21 21 21 21 22 22 22 22 22 23 22 22 22 22 22 23 23 22 23 23 23 23 23
13 13 13 13 13 13 13 13 13 13 13 14 16 17 19 18 19 20 21 21 22 22 23 23 23 23 23 23 23 24 24 23 23 23 23 23 24 23 23 23 24 24 24 24
15 15 15 14 15 15 14 14 14 14 14 16 16 17 19 20 20 20 21 21 22 23 23 24 24 24 25 24 24 25 25 24 24 24 24 24 25 25 24 25 25 25 25 26
16 17 16 15 15 15 15 15 16 16 16 17 18 18 20 20 21 22 22 22 23 23 24 24 25 25 25 25 25 26 25 25 25 26 26 25 26 26 26 26 26 26 26 27
17 18 18 17 17 16 16 16 16 17 18 19 19 20 20 21 21 23 23 23 24 24 25 25 25 25 25 26 26 26 25 25 27 27 27 27 27 26 26 26 27 27 27 28
18 19 19 19 18 18 18 18 19 20 20 20 21 22 23 23 23 25 25 25 25 25 25 25 25 25 26 26 26 26 26 26 26 26 27 27 27 27 26 27 28 28 29 29
19 20 21 20 19 20 20 20 20 21 21 21 23 24 24 25 25 26 26 26 26 26 26 25 25 25 26 25 25 25 25 26 26 27 27 27 27 27 27 28 29 29 29 29
20 20 21 22 21 21 21 21 21 21 22 22 23 24 25 26 26 26 26 26 26 26 26 26 26 26 25 25 25 25 25 26 26 27 27 27 27 28 29 30 30 30 30 30
21 21 22 22 22 21 22 22 22 23 24 24 24 24 25 27 27 27 27 27 27 27 27 27 27 26 25 25 25 26 26 26 26 27 27 27 28 28 29 30 31 31 30 31
22 22 23 23 23 23 23 23 23 24 25 25 25 26 26 27 28 28 28 28 28 27 28 28 27 26 26 26 26 26 26 27 27 27 27 28 29 29 30 30 31 31 31 31
22 22 23 23 24 24 24 24 24 25 25 26 26 26 27 27 28 28 28 28 29 28 28 28 27 27 27 27 27 27 27 27 27 27 27 28 30 30 30 30 31 31 31 31
22 23 24 24 24 25 25 24 24 25 25 26 26 26 26 27 27 27 28 28 29 29 28 28 28 28 28 28 28 28 27 28 28 28 28 28 29 29 29 29 29 30 30 30
23 23 25 25 25 26 25 24 25 25 25 25 25 25 26 26 27 27 27 28 29 29 29 28 28 28 29 28 28 28 28 28 29 29 28 28 28 28 29 29 29 29 30 30
24 24 25 25 26 27 25 24 25 25 25 25 26 26 26 26 26 26 27 27 27 29 29 30 29 29 29 29 29 29 28 29 30 29 29 28 29 29 29 29 29 29 30 30
23 24 25 25 26 27 25 24 25 26 26 26 27 27 27 26 26 26 27 27 28 28 28 29 29 28 28 28 29 29 29 29 29 29 29 28 27 28 28 28 28 29 29 30
23 23 24 25 26 27 26 25 26 26 26 27 28 28 28 28 28 27 27 28 29 29 28 28 28 28 28 28 28 28 28 28 28 28 27 26 26 27 27 26 27 27 27 28
24 24 25 26 27 27 27 26 27 27 28 29 29 29 29 29 29 29 29 29 29 28 28 28 28 28 28 29 28 28 27 28 28 27 27 27 27 27 26 26 25 25 26 27
25 25 26 26 27 28 27 27 27 28 29 30 30 30 30 30 30 30 30 29 29 29 29 29 29 28 28 28 28 27 27 27 28 28 27 27 28 27 26 25 25 25 25 25
25 26 28 28 28 29 29 29 29 29 30 30 31 31 31 30 30 30 30 29 29 29 29 29 29 29 28 28 27 28 28 28 28 28 28 28 27 27 26 26 26 26 26 26
25 27 29 29 29 30 30 29 29 30 30 31 30 30 31 30 30 30 29 29 29 29 29 28 29 29 29 28 28 28 28 28 28 28 28 28 27 27 27 27 27 27 27 27
27 28 29 29 29 30 30 30 30 30 29 29 30 30 29 29 29 29 29 28 28 28 28 29 29 29 29 29 29 28 28 27 27 28 28 28 28 28 28 28 28 28 28 27
Wind_Direction
278 281 283 283 283 283 282 279 279 279 277 275 282 285 283 281 281 283 285 284 285 285 286 287 288 288 287 287 287 287 287 286 287 289 291 291 291 290 289 288 289 288 286 285
281 283 284 284 286 286 283 280 279 277 277 278 278 282 284 285 284 284 285 284 285 286 286 287 289 288 288 287 287 288 287 286 286 287 289 289 288 288 287 285 286 285 285 285
281 283 284 283 283 280 281 281 280 279 276 278 280 280 281 284 283 283 284 286 285 286 287 288 289 288 287 288 288 288 287 287 287 287 287 287 286 285 284 282 282 282 282 283
278 280 281 279 279 279 280 283 280 278 277 278 280 282 281 283 284 284 285 285 284 286 287 286 287 287 286 288 288 287 287 288 288 287 286 285 284 282 282 280 279 280 280 280
276 279 279 278 281 282 283 286 283 281 279 278 282 284 283 285 285 286 286 287 286 287 288 286 286 286 286 286 287 288 288 288 287 286 285 284 283 281 280 278 279 279 279 279
280 280 279 279 281 282 285 283 281 283 283 283 284 281 280 283 285 287 288 287 288 289 289 288 286 284 283 284 285 286 287 286 286 284 283 282 282 282 280 279 279 279 278 278
279 279 278 280 280 280 281 282 285 285 286 285 285 283 281 285 285 286 287 288 287 288 289 290 288 285 283 284 285 285 285 284 284 284 285 283 282 282 280 280 280 279 278 278
279 282 280 279 281 283 280 278 278 279 283 284 284 285 285 288 288 287 287 287 285 285 287 288 288 287 285 284 283 282 283 283 283 284 285 284 283 281 281 281 281 280 280 280
278 280 280 280 280 279 280 278 279 278 278 283 287 288 288 288 288 287 287 287 286 286 287 288 288 287 286 284 282 282 281 281 282 283 284 283 281 281 281 282 281 281 280 279
275 277 277 278 279 279 280 280 276 276 280 282 284 286 288 290 287 285 286 286 285 286 287 286 286 286 285 285 283 282 281 281 282 282 282 281 280 281 282 281 281 282 281 280
273 276 276 276 279 281 280 278 277 275 275 281 283 282 286 288 288 286 284 284 286 287 286 286 285 285 287 285 283 281 281 281 282 282 281 280 280 281 282 281 281 282 282 281
272 273 276 278 280 281 279 278 277 276 276 275 279 284 286 287 288 288 286 283 284 285 287 286 285 285 286 286 283 280 280 281 282 283 282 280 279 281 282 282 282 282 282 282
271 272 275 278 280 284 283 281 281 280 279 277 278 284 286 286 286 285 285 284 284 284 285 285 285 285 284 284 282 281 282 283 284 284 283 281 281 282 282 283 282 282 282 282
271 270 272 275 278 282 283 282 280 280 280 281 279 281 282 282 283 283 283 283 283 283 284 284 285 285 283 282 281 282 282 282 283 284 283 282 283 285 284 283 282 281 281 280
272 271 272 273 276 278 281 283 282 280 280 281 281 279 281 282 282 283 283 283 283 284 284 285 285 283 283 283 283 283 283 283 283 284 283 283 285 285 284 283 282 282 281 280
273 273 273 274 276 278 280 283 283 282 282 281 282 282 282 282 282 282 283 283 283 284 286 286 285 283 282 283 283 283 283 283 284 283 282 285 285 285 285 283 281 281 281 281
273 274 275 277 279 279 279 284 285 285 286 284 283 283 282 282 282 282 283 283 285 284 285 287 285 283 283 283 283 284 283 283 284 282 282 285 286 285 285 283 281 281 282 282
274 274 276 278 279 279 284 286 286 287 288 287 286 284 283 283 284 283 284 285 284 285 285 286 286 284 283 284 283 283 284 284 284 282 284 286 287 287 286 283 282 281 281 281
275 276 277 278 278 280 284 285 285 287 288 288 288 288 287 286 285 285 285 286 286 286 287 287 287 286 284 284 283 283 283 284 284 283 286 287 287 286 285 285 283 282 281 281
274 276 277 278 279 282 286 287 287 288 288 288 288 289 288 288 286 286 285 286 286 287 288 289 288 288 287 284 284 283 284 284 285 285 285 286 286 287 286 284 283 283 283 283
274 274 275 277 279 281 285 286 287 287 290 289 289 289 287 286 286 286 286 287 286 287 288 289 290 290 289 286 284 284 284 284 285 284 285 287 287 287 287 285 284 284 286 287
273 276 277 277 278 281 284 285 285 286 288 289 290 288 287 286 285 286 286 285 285 286 286 287 289 291 290 287 285 285 284 283 283 283 284 286 286 287 287 288 286 285 286 287
273 275 276 277 279 281 283 284 285 286 287 288 289 288 287 287 285 284 284 285 285 284 285 287 288 289 290 289 286 285 284 282 281 282 283 284 283 284 285 286 288 287 286 287
272 274 275 276 277 279 282 282 284 286 287 288 287 287 287 285 284 283 284 284 284 285 285 287 288 288 289 288 287 285 285 282 283 282 282 281 280 282 285 284 286 289 289 288
274 275 276 276 277 279 281 283 284 285 287 288 287 287 287 284 283 284 285 284 284 284 285 287 288 288 288 288 288 287 287 285 283 283 281 280 279 281 283 284 286 288 290 291
274 275 277 278 279 279 282 283 284 286 287 287 288 289 288 287 287 286 286 285 285 285 286 286 287 288 288 288 288 289 288 286 284 282 281 280 281 282 283 283 286 288 290 291
Height
5847 5848 5848 5847 5847 5847 5847 5847 5847 5847 5846 5846 5846 5846 5847 5847 5847 5847 5847 5847 5847 5847 5847 5847 5847 5847 5846 5846 5845 5845 5844 5844 5843 5843 5842 5842 5841 5840 5839 5839 5838 5837 5837 5836
5846 5845 5845 5845 5844 5844 5844 5844 5844 5844 5844 5844 5844 5844 5844 5844 5844 5844 5843 5843 5844 5844 5843 5843 5843 5843 5842 5842 5842 5841 5840 5840 5839 5839 5838 5837 5837 5836 5835 5835 5834 5833 5833 5832
5843 5843 5843 5842 5842 5842 5842 5841 5841 5841 5841 5840 5841 5841 5841 5841 5841 5841 5840 5840 5840 5840 5839 5839 5839 5839 5838 5838 5838 5837 5836 5835 5835 5834 5833 5833 5832 5831 5831 5830 5830 5829 5829 5828
5840 5840 5840 5839 5839 5839 5838 5838 5838 5837 5838 5838 5838 5838 5838 5837 5837 5837 5837 5837 5836 5836 5835 5835 5835 5834 5834 5833 5833 5832 5831 5830 5829 5829 5828 5827 5827 5826 5826 5825 5825 5824 5824 5823
5837 5837 5837 5837 5837 5836 5835 5835 5835 5834 5834 5834 5834 5834 5835 5834 5833 5833 5833 5832 5832 5831 5831 5830 5830 5829 5829 5828 5827 5827 5826 5825 5824 5823 5823 5822 5821 5821 5820 5820 5819 5819 5818 5818
5834 5834 5834 5833 5833 5833 5832 5832 5832 5831 5830 5831 5831 5831 5830 5830 5829 5829 5828 5828 5827 5826 5826 5825 5825 5824 5823 5822 5822 5821 5820 5819 5818 5817 5817 5816 5815 5815 5815 5814 5814 5813 5813 5812
5831 5830 5830 5830 5830 5830 5829 5829 5828 5827 5827 5827 5827 5826 5826 5826 5825 5825 5824 5823 5822 5822 5821 5820 5819 5819 5818 5817 5816 5816 5815 5814 5813 5811 5811 5810 5809 5809 5808 5808 5807 5807 5807 5806
5826 5827 5827 5826 5826 5826 5826 5825 5825 5825 5824 5823 5823 5821 5822 5821 5820 5820 5819 5818 5817 5816 5815 5814 5813 5813 5812 5810 5810 5810 5809 5808 5807 5806 5805 5804 5803 5803 5802 5802 5801 5800 5800 5799
5822 5822 5822 5822 5822 5822 5821 5821 5821 5820 5819 5819 5818 5818 5817 5816 5815 5814 5813 5812 5811 5811 5810 5808 5807 5806 5805 5804 5803 5803 5802 5801 5800 5800 5799 5797 5796 5796 5795 5795 5794 5793 5793 5792
5818 5818 5818 5818 5818 5818 5818 5817 5817 5816 5815 5814 5814 5813 5812 5811 5810 5809 5808 5807 5805 5804 5803 5802 5801 5799 5798 5797 5796 5795 5795 5794 5793 5792 5791 5790 5789 5789 5788 5787 5787 5786 5785 5785
5813 5813 5813 5813 5813 5813 5813 5812 5811 5810 5810 5809 5808 5809 5807 5805 5804 5802 5801 5800 5799 5797 5796 5794 5793 5792 5791 5790 5789 5788 5787 5787 5786 5785 5784 5783 5782 5782 5781 5780 5779 5779 5778 5777
5808 5808 5807 5808 5808 5807 5807 5806 5806 5805 5804 5804 5802 5804 5801 5799 5797 5795 5794 5792 5792 5791 5789 5788 5786 5785 5784 5783 5782 5781 5780 5779 5779 5778 5776 5776 5775 5774 5773 5772 5772 5770 5769 5768
5802 5802 5802 5802 5803 5802 5801 5800 5799 5799 5798 5797 5796 5799 5794 5792 5790 5789 5787 5786 5785 5784 5783 5781 5779 5778 5777 5776 5774 5774 5773 5772 5771 5770 5769 5768 5767 5766 5765 5764 5763 5762 5761 5760
5796 5796 5797 5797 5796 5795 5795 5794 5793 5792 5791 5790 5790 5790 5788 5785 5784 5782 5780 5779 5778 5776 5775 5774 5772 5770 5769 5768 5767 5766 5765 5764 5763 5762 5761 5760 5759 5757 5756 5756 5755 5753 5752 5751
5790 5790 5790 5790 5789 5789 5788 5788 5787 5786 5785 5784 5783 5782 5781 5779 5777 5775 5773 5772 5770 5769 5768 5766 5765 5763 5762 5761 5760 5759 5758 5757 5755 5754 5754 5752 5751 5749 5748 5747 5746 5745 5744 5743
5782 5783 5783 5783 5783 5782 5782 5781 5780 5780 5778 5777 5775 5775 5773 5771 5769 5768 5767 5765 5763 5762 5760 5758 5756 5755 5754 5753 5752 5751 5750 5749 5747 5746 5745 5744 5743 5741 5739 5738 5737 5736 5735 5734
5776 5776 5776 5776 5776 5775 5775 5775 5774 5773 5771 5770 5768 5768 5765 5763 5762 5761 5759 5757 5755 5754 5752 5750 5749 5747 5746 5745 5744 5743 5742 5741 5739 5738 5737 5736 5734 5732 5730 5730 5729 5728 5727 5726
5770 5770 5769 5769 5769 5768 5771 5769 5767 5765 5764 5762 5761 5759 5758 5757 5755 5753 5751 5750 5748 5746 5744 5743 5741 5740 5738 5737 5736 5735 5734 5733 5731 5730 5729 5727 5725 5724 5722 5721 5720 5719 5719 5718
5764 5764 5763 5763 5762 5761 5763 5762 5760 5758 5757 5756 5753 5752 5750 5749 5748 5746 5744 5742 5740 5738 5736 5735 5733 5732 5730 5728 5728 5727 5726 5724 5723 5721 5720 5718 5717 5715 5714 5713 5712 5711 5710 5709
5757 5757 5757 5756 5755 5754 5756 5755 5752 5752 5750 5749 5746 5745 5743 5741 5740 5739 5737 5735 5733 5731 5729 5727 5726 5724 5722 5721 5719 5719 5717 5716 5715 5714 5712 5710 5709 5707 5706 5704 5703 5702 5701 5700
5751 5751 5750 5750 5748 5748 5749 5747 5746 5746 5744 5742 5739 5738 5736 5734 5733 5731 5729 5727 5725 5724 5722 5720 5718 5716 5714 5712 5711 5710 5709 5708 5707 5705 5704 5703 5701 5699 5697 5696 5695 5694 5692 5691
5744 5744 5743 5743 5742 5743 5741 5740 5740 5738 5736 5734 5732 5730 5728 5726 5724 5723 5721 5719 5718 5716 5714 5712 5711 5708 5706 5704 5703 5702 5701 5700 5699 5698 5696 5695 5693 5691 5690 5689 5687 5686 5685 5683
5737 5738 5736 5736 5737 5735 5734 5733 5732 5730 5728 5726 5724 5723 5720 5718 5716 5715 5713 5712 5710 5708 5706 5704 5703 5701 5699 5697 5695 5694 5693 5692 5691 5689 5688 5687 5685 5684 5682 5681 5680 5678 5677 5676
5731 5730 5729 5729 5729 5728 5726 5725 5724 5722 5720 5718 5716 5714 5712 5710 5708 5707 5705 5703 5702 5700 5698 5696 5694 5692 5691 5689 5687 5686 5685 5683 5682 5681 5680 5678 5677 5676 5674 5674 5672 5671 5669 5668
5724 5723 5722 5721 5722 5720 5719 5717 5716 5714 5712 5710 5708 5706 5703 5702 5700 5698 5697 5695 5693 5692 5690 5688 5686 5685 5683 5681 5680 5678 5676 5675 5674 5673 5671 5670 5669 5668 5667 5666 5665 5663 5661 5660
5716 5715 5714 5714 5713 5712 5711 5709 5708 5706 5704 5702 5700 5697 5695 5693 5692 5690 5688 5687 5685 5684 5682 5680 5678 5677 5675 5673 5672 5670 5668 5666 5665 5664 5663 5662 5661 5660 5659 5658 5656 5654 5653 5651